Regional Weather Roundup
Issued by NWS

Home | Current Version | Previous Version | Text Only | Print | Product List | Glossary Off
Versions: 1 2 3 4 5 6 7 8 9 10 11 12 13 14 15 16 17 18 19 20 21 22 23 24 25 26 27 28 29 30 31 32 33 34 35 36 37 38 39 40 41 42 43 44 45 46 47 48 49 50

000
ASUS43 KMKX 030159
RWRWI

WISCONSIN REGIONAL WEATHER ROUNDUP
NATIONAL WEATHER SERVICE MILWAUKEE/SULLIVAN WI
800 PM CST MON MAR 02 2015

NOTE: "FAIR" INDICATES FEW OR NO CLOUDS BELOW 12,000 FEET WITH NO
SIGNIFICANT WEATHER AND/OR OBSTRUCTIONS TO VISIBILITY.

WIZ001-002-006>008-014>016-023>028-030300-
NORTHWEST WISCONSIN

CITY           SKY/WX    TMP DP  RH WIND       PRES   REMARKS
SUPERIOR ARPT  CLEAR     21   5  51 S7        30.16F WCI  12
ASHLAND        CLEAR     18   1  47 S5        30.17F WCI  11
HAYWARD        PTCLDY    18   3  52 CALM      30.15F
SIREN          CLOUDY    22   5  49 S9        30.17S WCI  11
CUMBERLAND     CLOUDY    21   9  58 S10       30.15F WCI  10
RICE LAKE      CLOUDY    22   8  54 S7        30.19F WCI  14
CHETEK         CLOUDY    22   8  53 SE6       30.19F WCI  15
LADYSMITH      PTCLDY    21   4  47 SE5       30.19F WCI  15
EAU CLAIRE     NOT AVBL
MENOMONIE      CLOUDY    24   8  50 S7        30.20F WCI  16
NEW RICHMOND   CLOUDY    21  10  61 S10       30.18F WCI  10
OSCEOLA        CLOUDY    22  11  61 SE9       30.20F WCI  12
$$

WIZ003>005-009-010-017-018-030300-
NORTH CENTRAL WISCONSIN

CITY           SKY/WX    TMP DP  RH WIND       PRES   REMARKS
MANITOWISH WTR PTCLDY    14  -3  46 S5        30.14F WCI   6
ARBOR VITAE    PTCLDY    19   3  49 S6        30.15F WCI  11
WOODRUFF       PTCLDY    19   3  49 S6        30.15F WCI  11
RHINELANDER    PTCLDY    17   2  51 S5        30.17F WCI  10
EAGLE RIVER    CLEAR     19   1  47 S3        30.16F
LAND O LAKES   CLEAR     18   1  46 S6        30.15F WCI  10
PHILLIPS       CLOUDY    17   4  57 S7        30.15F WCI   7
TOMAHAWK       FAIR      16   3  58 CALM      30.19F
MEDFORD        MOCLDY    18   4  53 SE5       30.18F WCI  11
MERRILL        MOCLDY    15   5  65 CALM      30.21F
$$

WIZ029-030-035-036-043>047-030300-
CENTRAL WISCONSIN

CITY           SKY/WX    TMP DP  RH WIND       PRES   REMARKS
WAUSAU         MOCLDY    20   3  48 SE5       30.19F WCI  13
MOSINEE        NOT AVBL
MARSHFIELD     CLOUDY    22   8  55 S3        30.20F
STEVENS POINT  CLOUDY    22   6  50 SE5       30.24F WCI  16
WAUPACA        CLOUDY    27  11  52 S6        30.27F WCI  20
WAUTOMA        NOT AVBL
WISC RAPIDS    CLOUDY    24   5  44 S6        30.25F WCI  17
CAMP DOUGLAS   NOT AVBL
$$

WIZ011>013-019>022-031-037>040-048>050-030300-
NORTHEAST WISCONSIN

CITY           SKY/WX    TMP DP  RH WIND       PRES   REMARKS
ANTIGO         PTCLDY    10   1  66 S3        30.20F
SHAWANO        FAIR      24   9  53 S6        30.28F WCI  17
OCONTO         PTCLDY    20  11  68 S3        30.29F
STURGEON BAY   PTCLDY    19   9  63 S7        30.31F WCI  10
GREEN BAY      PTCLDY    24  13  62 S5        30.29F WCI  18
MANITOWOC      NOT AVBL
APPLETON       MOCLDY    21  10  63 VRB3      30.28F
CLINTONVILLE   MOCLDY    23  12  63 S7        30.26F WCI  15
OSHKOSH        CLOUDY    24  13  62 S7        30.28F WCI  16
$$

WIZ032>034-041-042-053>061-030300-
SOUTHWEST WISCONSIN

CITY           SKY/WX    TMP DP  RH WIND       PRES   REMARKS
LA CROSSE      CLOUDY    27  13  55 S9        30.26F WCI  18
SPARTA         CLOUDY    26  11  53 CALM      30.27S
VIROQUA        CLOUDY    24  13  64 S7        30.24S WCI  16
BOSCOBEL       CLOUDY    25  13  60 SE5       30.29F WCI  19
PRAIRIE DU CHI CLOUDY    26  12  55 SE6       30.28F WCI  19
PLATTEVILLE    CLOUDY    25  18  74 SE8       30.27F WCI  16
$$

WIZ056-057-062-063-064-067-068-030300-
SOUTH CENTRAL WISCONSIN

CITY           SKY/WX    TMP DP  RH WIND       PRES   REMARKS
REEDSBURG      CLOUDY    24  12  60 S7        30.27F WCI  16
BARABOO/DELLS  CLOUDY    24  12  59 S10       30.27F WCI  14
LONE ROCK      NOT AVBL
MINERAL POINT  FLURRIES  27  18  69 SE9       30.26F WCI  17
MADISON        CLOUDY    24  11  57 S10       30.29F WCI  14
MIDDLETON      CLOUDY    26  12  56 S10       30.30F WCI  15
WATERTOWN      CLOUDY    24  14  65 S5        30.30F WCI  18
MONROE         CLOUDY    25  19  80 S8        30.28F WCI  16
JANESVILLE     CLOUDY    27  16  63 SW10      30.31F WCI  17
$$

WIZ051-052-058>065-066-070>072-030300-
SOUTHEAST WISCONSIN

CITY           SKY/WX    TMP DP  RH WIND       PRES   REMARKS
MILWAUKEE      CLOUDY    25  14  63 S7        30.33F WCI  17
WAUKESHA       NOT AVBL
MILWAUKEE/TIMM CLEAR     25  12  58 S8        30.33F WCI  16
RACINE         CLOUDY    26  17  68 S8        30.34F WCI  18
BURLINGTON     CLOUDY    23  14  68 S6        30.33F WCI  16
KENOSHA        CLOUDY    26  18  71 S7        30.32F WCI  18
FOND DU LAC    CLOUDY    25  11  55 S6        30.29F WCI  18
SHEBOYGAN      CLOUDY    25  16  68 S9        30.30F WCI  15
WEST BEND      CLOUDY    25  14  63 SE5       30.29F WCI  19
JUNEAU         CLOUDY    24  11  57 S7        30.30F WCI  16
$$

LSZ147-162-030300-
LAKE SUPERIOR

STATION/POSITION TIME  TEMP    WIND        PRES    WAVE
                       AIR SEA DIR/SP/G            HT/PER
                 (UTC) (F)     (DEG/KT/KT) (MB)    (FT/S)
DEVILS ISLAND    0100   25     180/  6/  7 1022.7F
PORT WING        0100   24     180/  7/ 10 1021.7
SAXON HARBOR     0100   23      CALM  /  4 1022.0F
$$

LMZ867-665-643>646-030300-
LAKE MICHIGAN

STATION/POSITION TIME  TEMP    WIND        PRES    WAVE
                       AIR SEA DIR/SP/G            HT/PER
                 (UTC) (F)     (DEG/KT/KT) (MB)    (FT/S)
NORTHPORT PIER   0100   23     160/  5/  9 1026.4F
SISTER BAY       0143   20     190/  8/  9   N/A
KEWAUNEE LAKESHO 0100          210/  8/ 10 1026.1
SHEBOYGAN LAKESH 0100   26     180/ 15/ 16 1028.5F
PORT WASHINGTON  0100   27     170/ 13/ 15 1027.8F
MILWAUKEE LAKESH 0100   26     190/  7/  9   N/A
KENOSHA   LAKESH 0100   27     160/ 10/ 13 1027.4F
$$

TC  - TEMPERATURE IN CELSIUS
VSB - VISIBILITY IN STATUTE MILES
WCI - WIND CHILL INDEX
HX  - HEAT INDEX




USA.gov is the U.S. government's official web portal to all federal, state and local government web resources and services.